Weather reports worldwide

Advertisment
Aberdeen/Dyce, United Kingdom (3091): temperature & dewpoint: 08.12.2017 18:00:00 - 14.12.2017 18:00:00 (GMT)Aberdeen/Dyce, United Kingdom (3091): temperature -20cm & temperature -100cm: 08.12.2017 18:00:00 - 14.12.2017 18:00:00 (GMT)Aberdeen/Dyce, United Kingdom (3091): wind speed & gusts: 08.12.2017 18:00:00 - 14.12.2017 18:00:00 (GMT)Aberdeen/Dyce, United Kingdom (3091): wind direction: 08.12.2017 18:00:00 - 14.12.2017 18:00:00 (GMT)Aberdeen/Dyce, United Kingdom (3091): reduced air pressure: 08.12.2017 18:00:00 - 14.12.2017 18:00:00 (GMT)Aberdeen/Dyce, United Kingdom (3091): visibility: 08.12.2017 18:00:00 - 14.12.2017 18:00:00 (GMT)Aberdeen/Dyce, United Kingdom (3091): sunshine duration: 08.12.2017 18:00:00 - 14.12.2017 18:00:00 (GMT)Aberdeen/Dyce, United Kingdom (3091): precipitation: 08.12.2017 18:00:00 - 14.12.2017 18:00:00 (GMT)
Date & Time tt [°C] td [°C] tt -20cm [°C] tt -100cm [°C] ff [km/h] ff [kn] fx [km/h] fx [kn] dd ppp [hPa] vv [km] sd [min] rr [mm]
14.12.2017 18:00:00 -2,5 -3,8 - - 2 1 - - - 982,3 10 0 0,0
14.12.2017 17:00:00 -2,4 -4,1 - - 4 2 - - - 981,4 10 0 0,0
14.12.2017 16:00:00 -0,8 -3,1 - - 0 0 - - N 980,4 10 0 0,0
14.12.2017 15:00:00 0,4 -3,2 - - 2 1 - - - 979,8 10 30 0,0
14.12.2017 14:00:00 0,4 -3,1 - - 4 2 - - - 979,5 10 60 0,0
14.12.2017 13:00:00 0,0 -3,1 - - 4 2 - - - 979,2 10 60 0,0
14.12.2017 12:00:00 0,1 -2,8 - - 4 2 - - - 979,1 10 60 0,0
14.12.2017 11:00:00 -1,4 -3,4 - - 4 2 - - - 979,2 10 18 0,0
14.12.2017 10:00:00 -1,8 -4,8 - - 8 4 - - NE 979,2 10 30 0,0
14.12.2017 09:00:00 -0,5 -2,8 4,7 6,7 2 1 - - - 978,8 10 0 0,0
14.12.2017 08:00:00 -2,0 -4,4 - - 5 3 - - SE 979,0 10 0 0,0
14.12.2017 07:00:00 -1,7 -3,8 - - 5 3 - - - 978,8 10 0 0,0
14.12.2017 06:00:00 -1,1 -2,7 - - 8 4 - - SSE 978,8 10 0 0,0
14.12.2017 05:00:00 0,9 -2,5 - - 11 6 - - WSW 978,4 10 0 0,0
14.12.2017 04:00:00 1,8 -2,3 - - 15 8 - - W 978,4 10 0 0,0
14.12.2017 03:00:00 1,3 -2,7 - - 13 7 - - WSW 978,6 10 0 0,0
14.12.2017 02:00:00 0,7 -3,4 - - 15 8 - - WSW 979,0 10 0 0,0
14.12.2017 01:00:00 0,4 -3,3 - - 4 2 - - - 979,0 10 0 0,0
14.12.2017 00:00:00 0,8 -3,5 - - 13 7 - - WSW 979,1 10 - 0,0
13.12.2017 23:00:00 0,8 -3,5 - - 15 8 - - WSW 979,0 10 0 0,0
13.12.2017 22:00:00 1,2 -3,1 - - 9 5 - - WSW 978,9 10 0 0,0
13.12.2017 21:00:00 1,3 -2,7 - - 15 8 - - W 979,1 10 0 0,0
13.12.2017 20:00:00 0,7 -2,6 - - 8 4 - - SW 979,2 10 0 0,0
13.12.2017 19:00:00 1,1 -2,6 - - 11 6 - - WSW 979,4 10 0 0,0
13.12.2017 18:00:00 1,8 -2,3 - - 13 7 - - WSW 979,5 10 0 0,0
13.12.2017 17:00:00 2,2 -2,1 - - 8 4 - - W 979,7 10 0 0,0
13.12.2017 16:00:00 2,0 -1,9 - - 11 6 - - W 979,8 10 0 0,0
13.12.2017 15:00:00 3,5 -1,6 - - 16 9 - - W 979,6 10 18 0,0
13.12.2017 14:00:00 4,2 -0,4 - - 16 9 - - W 979,5 10 54 0,0
13.12.2017 13:00:00 4,5 0,7 - - 22 12 - - W 979,9 10 24 0,0
13.12.2017 12:00:00 4,0 1,3 - - 11 6 - - WSW 980,7 10 0 0,2
13.12.2017 11:00:00 3,3 2,1 - - 9 5 - - WSW 980,7 10 0 1,2
13.12.2017 10:00:00 3,8 2,1 - - 26 14 - - WSW 981,7 9 0 0,8
13.12.2017 09:00:00 4,2 1,9 4,7 6,7 24 13 - - SW 982,1 10 0 0,2
13.12.2017 08:00:00 4,0 1,3 - - 22 12 - - SSW 983,5 10 0 0,4
13.12.2017 07:00:00 3,2 0,2 - - 13 7 - - SSW 985,0 10 0 0,0
13.12.2017 06:00:00 1,9 -0,5 - - 13 7 - - S 986,6 10 0 0,0
13.12.2017 05:00:00 2,7 -0,4 - - 13 7 - - SSW 987,9 10 0 0,0
13.12.2017 04:00:00 2,6 -0,6 - - 15 8 - - SW 989,0 10 0 0,0
13.12.2017 03:00:00 3,0 -0,2 - - 15 8 - - SW 989,8 10 0 0,2
13.12.2017 02:00:00 3,9 0,1 - - 16 9 - - WSW 989,9 10 0 0,2
13.12.2017 01:00:00 4,2 0,7 - - 18 10 - - W 990,3 10 0 0,0
13.12.2017 00:00:00 2,3 0,9 - - 13 7 - - SW 990,5 10 - 0,4
12.12.2017 23:00:00 2,2 1,2 - - 9 5 - - S 990,8 10 0 0,2
12.12.2017 22:00:00 2,1 1,3 - - 13 7 - - S 991,6 6 0 1,2
12.12.2017 21:00:00 2,4 1,2 - - 26 14 - - S 992,7 10 0 0,2
12.12.2017 20:00:00 2,3 0,5 - - 21 11 - - S 993,7 10 0 0,0
12.12.2017 19:00:00 1,9 -0,6 - - 24 13 - - S 995,0 10 0 0,0
12.12.2017 18:00:00 1,5 -1,2 - - 13 7 - - SSE 995,9 10 0 0,0
12.12.2017 17:00:00 1,7 -2,8 - - 8 4 - - SE 996,9 10 0 0,0
12.12.2017 16:00:00 0,3 -3,4 - - 2 1 - - - 997,7 10 0 0,0
12.12.2017 15:00:00 1,5 -3,3 - - 4 2 - - - 998,3 10 0 0,0
12.12.2017 14:00:00 1,8 -3,0 - - 9 5 - - SW 999,1 10 36 0,0
12.12.2017 13:00:00 2,0 -2,8 - - 8 4 - - - 999,7 10 0 0,0
12.12.2017 12:00:00 1,6 -2,9 - - 2 1 - - - 1000,1 10 6 0,0
12.12.2017 11:00:00 1,7 -2,7 - - 15 8 - - WSW 1000,5 10 6 0,0
12.12.2017 10:00:00 1,7 -2,7 - - 16 9 - - WSW 1000,5 10 6 0,0
12.12.2017 09:00:00 1,6 -2,6 5,0 6,9 21 11 - - W 1000,2 10 0 0,0
12.12.2017 08:00:00 1,8 -2,1 - - 16 9 - - W 1000,3 10 0 0,0
12.12.2017 07:00:00 1,6 -2,0 - - 18 10 - - W 1000,1 10 0 0,0
12.12.2017 06:00:00 1,4 -1,8 - - 18 10 - - W 999,8 10 0 0,0
12.12.2017 05:00:00 1,7 -1,6 - - 22 12 - - W 999,7 10 0 0,0
12.12.2017 04:00:00 2,1 -1,2 - - 21 11 - - W 999,9 10 0 0,0
12.12.2017 03:00:00 1,9 -0,8 - - 21 11 - - W 1000,1 10 0 0,0
12.12.2017 02:00:00 1,2 -0,9 - - 15 8 - - W 999,6 10 0 0,0
12.12.2017 01:00:00 1,5 -0,2 - - 18 10 - - W 999,0 10 0 0,0
12.12.2017 00:00:00 1,8 0,1 - - 16 9 - - WNW 998,3 10 - 0,0
11.12.2017 23:00:00 2,3 0,6 - - 16 9 - - WNW 998,2 10 0 0,0
11.12.2017 22:00:00 2,2 0,6 - - 18 10 - - WNW 998,0 10 0 0,2
11.12.2017 21:00:00 2,5 0,5 - - 15 8 - - WNW 997,9 10 0 0,0
11.12.2017 20:00:00 2,2 -0,1 - - 15 8 - - NW 997,3 10 0 0,0
11.12.2017 19:00:00 2,0 0,4 - - 15 8 - - NW 996,4 10 0 0,0
11.12.2017 18:00:00 2,1 0,5 - - 15 8 - - NW 995,2 10 0 0,2
11.12.2017 17:00:00 2,0 0,5 - - 21 11 - - WNW 994,4 10 0 0,2
11.12.2017 16:00:00 2,1 0,5 - - 16 9 - - NW 993,5 10 0 0,0
11.12.2017 15:00:00 2,5 0,8 - - 16 9 - - NW 992,4 10 18 0,0
11.12.2017 14:00:00 2,7 0,9 - - 18 10 - - WNW 991,4 10 30 0,2
11.12.2017 13:00:00 2,6 0,6 - - 16 9 - - NW 990,7 10 60 0,0
11.12.2017 12:00:00 2,5 0,7 - - 18 10 - - NW 990,1 10 24 0,0
11.12.2017 11:00:00 2,4 0,5 - - 11 6 - - NNW 989,9 10 42 0,0
11.12.2017 10:00:00 1,9 0,4 - - 9 5 - - N 988,7 10 18 0,0
11.12.2017 09:00:00 1,0 -0,4 5,0 7,0 15 8 - - WNW 988,0 10 0 0,0
11.12.2017 08:00:00 0,6 -0,7 - - 4 2 - - - 987,1 10 0 0,0
11.12.2017 07:00:00 1,1 -0,4 - - 16 9 - - WNW 986,4 10 0 0,0
11.12.2017 06:00:00 1,0 -0,8 - - 15 8 - - WNW 985,9 10 0 0,0
11.12.2017 05:00:00 1,1 -1,2 - - 16 9 - - WNW 985,3 10 0 0,0
11.12.2017 04:00:00 1,0 -1,2 - - 18 10 - - W 984,7 10 0 0,0
11.12.2017 03:00:00 0,7 -1,9 - - 15 8 - - W 984,3 10 0 0,0
11.12.2017 02:00:00 0,5 -2,4 - - 13 7 - - W 983,5 10 0 0,0
11.12.2017 01:00:00 -0,9 -3,4 - - 5 3 - - - 983,3 10 0 0,0
11.12.2017 00:00:00 -0,7 -2,5 - - 4 2 - - - 982,9 3,8 - 0,0
10.12.2017 23:00:00 -0,8 -4,6 - - 4 2 - - - 982,5 10 0 0,0
10.12.2017 22:00:00 -0,7 -4,8 - - 8 4 - - - 982,0 10 0 0,0
10.12.2017 21:00:00 -1,3 -5,0 - - 5 3 - - - 981,7 10 0 0,0
10.12.2017 20:00:00 -3,0 -7,0 - - 5 3 - - - 981,6 10 0 0,0
10.12.2017 19:00:00 -2,2 -5,9 - - 8 4 - - S 981,5 10 0 0,0
10.12.2017 18:00:00 -1,4 -5,3 - - 13 7 - - WSW 981,0 10 0 0,0
10.12.2017 17:00:00 -0,9 -4,7 - - 15 8 - - W 980,7 10 0 0,0
10.12.2017 16:00:00 -0,9 -4,3 - - 8 4 - - - 980,7 10 0 0,0
10.12.2017 15:00:00 -1,4 -5,3 - - 2 1 - - - 981,0 10 30 0,0
10.12.2017 14:00:00 -0,6 -4,6 - - 4 2 - - - 981,3 10 60 0,0
10.12.2017 13:00:00 -1,9 -5,5 - - 4 2 - - - 981,9 10 60 0,0
10.12.2017 12:00:00 -2,4 -6,4 - - 5 3 - - - 982,6 10 60 0,0
10.12.2017 11:00:00 -1,3 -5,0 - - 13 7 - - WNW 983,4 10 60 0,0
10.12.2017 10:00:00 -6,2 -7,1 - - 4 2 - - - 984,6 10 36 0,0
10.12.2017 09:00:00 -7,7 -8,5 5,4 7,0 4 2 - - - 985,6 10 0 0,0
10.12.2017 08:00:00 -7,0 -7,6 - - 5 3 - - N 986,5 10 0 0,0
10.12.2017 07:00:00 -5,7 -6,8 - - 4 2 - - - 987,1 10 0 0,0
10.12.2017 06:00:00 -5,9 -6,9 - - 2 1 - - - 988,3 10 0 0,0
10.12.2017 05:00:00 -2,5 -4,4 - - 9 5 - - W 989,4 10 0 0,0
10.12.2017 04:00:00 -4,7 -5,9 - - 5 3 - - SSE 991,0 10 0 0,0
10.12.2017 03:00:00 -2,7 -5,4 - - 2 1 - - - 992,5 10 0 0,0
10.12.2017 02:00:00 -1,0 -4,0 - - 18 10 - - W 993,5 10 0 0,0
10.12.2017 01:00:00 -1,5 -4,4 - - 21 11 - - W 994,7 10 0 0,0
10.12.2017 00:00:00 -1,5 -4,5 - - 16 9 - - W 996,5 10 - 0,0
09.12.2017 23:00:00 -1,2 -4,1 - - 15 8 - - W 997,9 10 0 0,0
09.12.2017 22:00:00 -1,8 -4,2 - - 13 7 - - WSW 999,1 10 0 0,0
09.12.2017 21:00:00 -1,2 -3,7 - - 15 8 - - WSW 1000,0 10 0 0,0
09.12.2017 20:00:00 -1,4 -3,8 - - 5 3 - - - 1001,7 10 0 0,0
09.12.2017 19:00:00 -0,8 -3,7 - - 18 10 - - W 1002,5 10 0 0,0
09.12.2017 18:00:00 -0,9 -3,8 - - 22 12 - - W 1003,1 10 0 0,0
09.12.2017 17:00:00 -0,4 -3,1 - - 22 12 - - W 1004,0 10 0 0,0
09.12.2017 16:00:00 -0,2 -2,8 - - 21 11 - - W 1004,6 10 0 0,0
09.12.2017 15:00:00 0,3 -2,5 - - 18 10 - - WNW 1005,4 10 0 0,0
09.12.2017 14:00:00 0,3 -2,5 - - 21 11 - - W 1006,5 10 0 0,0
09.12.2017 13:00:00 0,1 -2,6 - - 24 13 - - W 1007,2 10 18 0,0
09.12.2017 12:00:00 -0,1 -1,8 - - 16 9 - - W 1008,2 10 0 0,0
09.12.2017 11:00:00 0,2 -1,7 - - 18 10 - - W 1009,0 10 0 0,0
09.12.2017 10:00:00 -0,4 -1,5 - - 16 9 - - WSW 1009,4 10 0 0,0
09.12.2017 09:00:00 -0,2 -0,8 5,7 7,0 11 6 - - NW 1010,2 0,9 0 0,0
09.12.2017 08:00:00 -0,1 -1,2 - - 21 11 - - W 1010,0 10 0 0,0
09.12.2017 07:00:00 0,3 -1,2 - - 18 10 - - W 1010,3 10 0 0,0
09.12.2017 06:00:00 0,4 -0,9 - - 15 8 - - W 1010,8 10 0 0,0
09.12.2017 05:00:00 0,1 -1,6 - - 16 9 - - W 1011,0 10 0 0,0
09.12.2017 04:00:00 0,3 -1,5 - - 22 12 - - W 1011,1 10 0 0,0
09.12.2017 03:00:00 0,6 -0,9 - - 15 8 - - WNW 1012,0 10 0 0,0
09.12.2017 02:00:00 0,8 -0,5 - - 21 11 - - WNW 1011,9 10 0 0,0
09.12.2017 01:00:00 1,2 -0,2 - - 28 15 - - WNW 1011,9 10 0 0,0
09.12.2017 00:00:00 1,5 0,1 - - 22 12 - - NW 1012,4 5 - 0,0
08.12.2017 23:00:00 1,3 0,5 - - 31 17 52 28 WNW 1012,0 10 0 0,2
08.12.2017 22:00:00 1,5 0,3 - - 28 15 - - WNW 1011,6 10 0 0,0
08.12.2017 21:00:00 0,9 0,3 - - 29 16 - - NW 1011,6 1,5 0 0,0
08.12.2017 20:00:00 1,3 0,2 - - 26 14 57 31 W 1010,8 9 0 0,0
08.12.2017 19:00:00 1,7 -0,7 - - 39 21 61 33 WNW 1009,7 4,0 0 0,0
08.12.2017 18:00:00 1,3 -1,1 - - 39 21 55 30 WNW 1008,7 9 0 0,0

tt = temperature
td = dewpoint
tt -20cm = temperature -20cm
tt -100cm = temperature -100cm
ff = wind speed
fx = gusts
dd = wind direction
ppp = reduced air pressure
vv = visibility
sd = sunshine duration
rr = precipitation

Next stations